User: anonymous   Login
Location: Lincolnton
(35.4660°N, 81.2500°W)
Time: 13:13:56
(UTC-04:00)
Language:

Hubble Space Telescope - Orbit

View from above orbital plane
View from above orbital plane
View from above satellite
View from above satellite

Ground track
Ground track

The orbit data is extracted from the following two-line orbital elements,

1 20580U 90037B   16149.85083289  .00000731  00000-0  34606-4 0  9992
2 20580  28.4709  26.4105 0002730   4.0831  87.6260 15.08370491232186
Epoch (UTC): 28 May 2016 20:25:11
Eccentricity: 0.0002730
inclination: 28.4709°
perigee height: 539 km
apogee height: 543 km
right ascension of ascending node: 26.4105°
argument of perigee: 4.0831°
revolutions per day: 15.08370491
mean anomaly at epoch: 87.6260°
orbit number at epoch: 23218

The dashed part of the orbit path shows where the satellite is in the earth's shadow,  

DLR